Overview Statistics Trail Chart Weather Telemetry Raw packets
 

This is the latest recevied weather packets stored in our database for station/object IZ7EXI-13. If no packets are shown the sender has not sent any weather packets the latest 10 day(s).

<< 27 28 29 30 31 32 33 >>
Time Temp. Humidity Pressure Rain* Wind** Luminosity Snow
1788157258 27.78° C 78% 1016.8 hPa - - - -
1788156358 27.22° C 79% 1016.8 hPa - - - -
1788155457 26.67° C 79% 1016.7 hPa - - - -
1788154557 26.67° C 80% 1016.7 hPa - - - -
1788153657 26.11° C 81% 1016.6 hPa - - - -
1788152757 26.11° C 82% 1016.6 hPa - - - -
1788151857 25.56° C 82% 1016.5 hPa - - - -
1788150956 25.56° C 82% 1016.2 hPa - - - -
1788150056 26.11° C 81% 1016.2 hPa - - - -
1788149156 26.11° C 80% 1016.3 hPa - - - -
1788148256 26.11° C 80% 1016.3 hPa - - - -
1788147420 26.11° C 80% 1016.2 hPa - - - -
1788147355 26.11° C 80% 1016.2 hPa - - - -
1788146514 26.11° C 80% 1016.2 hPa - - - -
1788146455 26.11° C 80% 1016.2 hPa - - - -
1788145546 26.11° C 79% 1016.1 hPa - - - -
1788144646 26.67° C 80% 1016.3 hPa - - - -
1788143745 26.67° C 81% 1016.4 hPa - - - -
1788142845 26.67° C 81% 1016.4 hPa - - - -
1788141945 26.67° C 82% 1016.4 hPa - - - -
1788141045 26.67° C 82% 1016.3 hPa - - - -
1788140160 26.67° C 82% 1016.3 hPa - - - -
1788139310 26.67° C 82% 1016.3 hPa - - - -
1788139244 26.67° C 82% 1016.3 hPa - - - -
1788138344 26.67° C 82% 1016.2 hPa - - - -

* Rain since midnight (hover to see other rain measurements)
** Current wind speed in m/s (hover to see current wind gust speed)